Location: Cisewo
(53.3833°N, 14.9000°E)
Time: 14:08:13
(UTC+00:00)

Okean 3 Rocket - Pass Details

Date: 18 April 2021
Orbit: 615 x 645 km, 82.5° (Epoch: 16 May)

Event Time Altitude Azimuth Distance (km) Brightness Sun altitude
Rises 20:50:58 0° 346° (NNW) 2,971 8.3 -19.9°
Reaches altitude 10° 20:53:15 10° 342° (NNW) 2,054 7.3 -20.1°
Maximum altitude 20:57:44 59° 264° (W) 748 4.0 -20.4°
Enters shadow 20:59:22 36° 202° (SSW) 1,020 4.3 -20.6°
